Home > Weather > Verona > Past weeks

Flag for Italy Past Weather in Verona, Italy — Yesterday and Last 2 Weeks

Now
77 °F

Sunny.


Feels Like: 79 °F
Forecast: 61 / 83 °F
Wind: 5 mph from Southeast

Location: Verona / Villafranca

Current Time: May 27, 2016 at 12:27:37 PM

Latest Report: May 27, 2016 at 11:50 AM


Visibility: 10 mi

Pressure: 30.04 "Hg

Humidity: 47%

Dew Point: 55 °F

Location of VeronaLocation

Past Weather in Verona — Graph

°F

Verona Temperature Yesterday

Maximum temperature yesterday: 79 °F (at 2:50 PM)
Minimum temperature yesterday: 54 °F (at 4:20 AM)
Average temperature yesterday: 68 °F

High & Low Weather Summary for the Past Weeks

 TemperatureHumidityPressure
High81 °F (May 22, 3:50 PM)100% (May 13, 3:20 AM)30.12 "Hg (May 13, 3:20 AM)
Low46 °F (May 17, 4:50 AM)34% (May 24, 5:20 PM)29.45 "Hg (May 13, 5:20 AM)
Average62 °F70%29.87 "Hg
* Reported May 12 10:20 AM — May 27 10:50 AM, Verona, Weather by CustomWeather, © 2016

Note: Actual official high and low records may vary slightly from our data, if they occured in-between our weather recording intervals... More about our weather records

Advertising

Verona Weather History for the Previous 24 Hours

Scroll right to see more
 ConditionsComfort  
Time TempWeatherWind HumidityBarometerVisibility
10:50 AM
Fri, May 27
77 °FPassing clouds.3 mph47%30.04 "HgN/A
10:20 AM75 °FPassing clouds.3 mph50%30.04 "HgN/A
9:50 AM73 °FPassing clouds.5 mph57%30.04 "HgN/A
9:20 AM73 °FPassing clouds.3 mph53%30.04 "HgN/A
8:50 AM72 °FPassing clouds.2 mph61%30.04 "HgN/A
8:20 AM68 °FSunny.2 mph73%30.04 "Hg10 mi
7:50 AM66 °FSunny.2 mph73%30.04 "Hg10 mi
7:20 AM64 °FSunny.3 mph78%30.04 "Hg10 mi
6:50 AM61 °FSunny.2 mph83%30.04 "Hg10 mi
6:20 AM61 °FClear.6 mph77%30.01 "Hg10 mi
5:50 AM61 °FClear.7 mph77%30.01 "Hg10 mi
5:20 AM59 °FClear.5 mph82%30.01 "Hg10 mi
4:50 AM59 °FClear.3 mph82%30.01 "Hg10 mi
4:20 AM59 °FClear.6 mph88%30.01 "Hg10 mi
3:50 AM61 °FClear.5 mph83%30.01 "Hg10 mi
3:20 AM61 °FClear.5 mph83%30.01 "Hg10 mi
2:50 AM61 °FClear.3 mph83%30.01 "Hg10 mi
1:50 AM61 °FClear.5 mph83%30.01 "Hg10 mi
1:20 AM63 °FClear.2 mph77%30.01 "Hg10 mi
12:50 AM63 °FClear.3 mph77%30.01 "Hg10 mi
12:20 AM64 °FClear.3 mph68%30.01 "Hg10 mi
11:50 PM
Thu, May 26
66 °FClear.7 mph68%30.01 "Hg10 mi
11:20 PM64 °FClear.6 mph78%30.01 "Hg10 mi
10:50 PM66 °FClear.5 mph73%30.01 "Hg10 mi
10:20 PM66 °FClear.1 mph83%29.98 "Hg10 mi
9:50 PM70 °FSunny.1 mph64%29.98 "Hg10 mi
9:20 PM70 °FSunny.1 mph64%29.98 "Hg10 mi
8:50 PM73 °FClear.3 mph53%29.98 "Hg5 mi
8:20 PM75 °FSunny.2 mph50%29.98 "Hg10 mi
7:50 PM75 °FPassing clouds.3 mph54%29.95 "HgN/A
7:20 PM77 °FSunny.2 mph44%29.95 "Hg10 mi
6:50 PM79 °FPassing clouds.5 mph42%29.95 "HgN/A
6:20 PM79 °FPassing clouds.3 mph39%29.98 "HgN/A
5:50 PM79 °FPassing clouds.3 mph37%29.98 "HgN/A
5:20 PM79 °FPassing clouds.5 mph39%29.98 "HgN/A
4:50 PM79 °FPassing clouds.3 mph39%29.98 "HgN/A
4:20 PM79 °FSunny.2 mph42%29.98 "Hg10 mi
3:50 PM79 °FPassing clouds.6 mph39%29.98 "HgN/A
3:20 PM79 °FPassing clouds.2 mph45%29.98 "HgN/A
2:50 PM79 °FPassing clouds.6 mph45%29.98 "HgN/A
2:20 PM77 °FPassing clouds.3 mph51%29.98 "HgN/A
1:50 PM77 °FPassing clouds.3 mph51%29.98 "HgN/A
1:20 PM75 °FPassing clouds.3 mph54%30.01 "HgN/A
12:50 PM75 °FPassing clouds.3 mph54%30.01 "Hg5 mi
12:20 PM73 °FClear.3 mph57%30.01 "Hg5 mi
Weather by CustomWeather, © 2016

See weather overviewHow to use our weather pages